This is the latest recevied weather packets stored in our database for station/object XE2RCS-1. If no packets are shown the sender has not sent any weather packets the latest 10 day(s).
| Time | Temp. | Humidity | Pressure | Rain* | Wind** | Luminosity | Snow |
|---|---|---|---|---|---|---|---|
| 1788281090 | 27.22° C | 37% | 1018 hPa | 0 mm | - | - | - |
| 1788280490 | 27.22° C | 37% | 1018 hPa | 0 mm | - | - | - |
| 1788279889 | 27.22° C | 38% | 1021 hPa | 0 mm | - | - | - |
| 1788279288 | 26.11° C | 40% | 1021 hPa | 0 mm | - | - | - |
| 1788278687 | 26.11° C | 41% | 1021 hPa | 0 mm | - | - | - |
| 1788278087 | 26.11° C | 42% | 1018 hPa | 0 mm | - | - | - |
| 1788277486 | 25.56° C | 42% | 1018 hPa | 0 mm | - | - | - |
| 1788276886 | 25.56° C | 43% | 1018 hPa | 0 mm | - | - | - |
| 1788276285 | 25.56° C | 44% | 1021 hPa | 0 mm | - | - | - |
| 1788275684 | 25.56° C | 46% | 1021 hPa | 0 mm | - | - | - |
| 1788275084 | 25.56° C | 49% | 1021 hPa | 0 mm | - | - | - |
| 1788274483 | 24.44° C | 68% | 1019 hPa | 0 mm | - | - | - |
| 1788273882 | 24.44° C | 68% | 1019 hPa | 0 mm | - | - | - |
| 1788273282 | 24.44° C | 68% | 1019 hPa | 0 mm | - | - | - |
| 1788272681 | 23.89° C | 69% | 1021 hPa | 0 mm | - | - | - |
| 1788272081 | 23.89° C | 69% | 1021 hPa | 0 mm | - | - | - |
| 1788271480 | 23.33° C | 66% | 1021 hPa | 0 mm | - | - | - |
| 1788270880 | 22.78° C | 56% | 1019 hPa | 0 mm | - | - | - |
| 1788270279 | 22.22° C | 62% | 1019 hPa | 0 mm | - | - | - |
| 1788269678 | 22.22° C | 74% | 1019 hPa | 0 mm | - | - | - |
| 1788269078 | 21.67° C | 75% | 1021 hPa | 0 mm | - | - | - |
| 1788268477 | 21.67° C | 76% | 1021 hPa | 0 mm | - | - | - |
| 1788267876 | 21.11° C | 76% | 1021 hPa | 0 mm | - | - | - |
| 1788267276 | 21.11° C | 76% | 1019 hPa | 0 mm | - | - | - |
| 1788266675 | 21.67° C | 75% | 1019 hPa | 0 mm | - | - | - |
* Rain latest hour (hover to see other rain measurements)
** Current wind speed in m/s (hover to see current wind gust speed)